Terminal Aerodrome Forecast
Issued by NWS

Home | Current Version | Previous Version | Text Only | Print | Product List | Glossary On
Versions: 1 2 3 4 5 6 7 8 9 10 11 12 13 14 15 16 17 18 19 20 21 22 23 24 25 26 27 28 29 30 31 32 33 34 35 36 37 38 39 40 41 42 43 44 45 46 47 48 49 50
000
FTUS44 KHGX 040539
TAFUTS
TAF
KUTS 040539Z 0406/0506 18005KT P6SM SCT013 SCT019 OVC035
      TEMPO 0406/0408 BKN015
     FM040800 17009KT 3SM BR OVC007
     FM041600 16008KT 6SM BR VCSH BKN007 OVC015
     FM042100 18009KT 6SM TSRA SCT007 OVC012CB
     FM050000 34012KT 6SM BR VCSH BKN015=

USA.gov is the U.S. government's official web portal to all federal, state and local government web resources and services.